Milton, FL

12:04 PM CDT on June 22, 2017 (GMT -0500)
Whiting Field Naval Air Station (South)

Weather History for KNDZ - July, 2013

Change the Weather History Date:

Sunday, July 14, 2013

  Actual Average (KNSE) Record (KNSE)
Temperature  
Mean Temperature 78 °F -  
Max Temperature 86 °F 87 °F 97 °F (2000)
Min Temperature 69 °F 70 °F 68 °F (1999)
Cooling Degree Days 12    
Growing Degree Days 28 (Base 50)    
Moisture  
Dew Point 71 °F    
Average Humidity 83    
Maximum Humidity 94    
Minimum Humidity 65    
Precipitation  
Precipitation 0.03 in - - ()
Sea Level Pressure  
Sea Level Pressure 29.97 in    
Wind  
Wind Speed 5 mph (ENE)    
Max Wind Speed 21 mph    
Max Gust Speed 30 mph    
Visibility 10 miles    
Events Rain    
Averages and records for this station are not official NWS values.
T = Trace of Precipitation, MM = Missing Value Source: NWS Daily Summary

Daily Weather History Graph

Daily Weather History Graph

Search for Another Location

Airport or City:

Trip Planner

Search our weather history database for the weather conditions in past years. The results will help you decide how hot, cold, wet, or windy it might be!

Date:

Astronomy

Jul. 14, 2013 Rise Set
Actual Time 5:55 AM CDT 7:52 PM CDT
Civil Twilight 5:28 AM CDT 8:19 PM CDT
Nautical Twilight 4:55 AM CDT 8:52 PM CDT
Astronomical Twilight 4:20 AM CDT 9:27 PM CDT
Moon 11:42 AM CDT (7/14) 11:35 PM CDT (7/14)
Length of Visible Light 14h 51m
Length of Day
13h 57m
Waxing Crescent, 35% of the Moon is Illuminated
Jul 14
Waxing Crescent
Jul 15
First Quarter
Jul 22
Full
Jul 29
Last Quarter
Aug 6
New

Hourly Weather History & Observations

Time (CDT) Temp. Heat Index Dew Point Humidity Pressure Visibility Wind Dir Wind Speed Gust Speed Precip Events Conditions
12:56 AM 72.0 °F - 66.9 °F 84% 29.92 in 10.0 mi Calm Calm - N/A   Partly Cloudy
1:56 AM 70.0 °F - 66.9 °F 90% 29.89 in 10.0 mi Calm Calm - N/A   Clear
2:56 AM 70.0 °F - 66.9 °F 90% 29.91 in 10.0 mi NNE 8.1 mph - N/A   Clear
3:56 AM 69.1 °F - 66.0 °F 90% 29.91 in 10.0 mi North 5.8 mph - N/A   Clear
4:56 AM 69.1 °F - 64.9 °F 87% 29.92 in 10.0 mi North 5.8 mph - N/A   Partly Cloudy
5:56 AM 69.1 °F - 66.0 °F 90% 29.95 in 10.0 mi NNE 6.9 mph - N/A   Clear
6:05 AM 69.8 °F - 66.2 °F 88% 29.99 in 10.0 mi NE 8.1 mph - N/A   Scattered Clouds
6:15 AM 69.8 °F - 66.2 °F 88% 29.99 in 10.0 mi NE 6.9 mph - N/A   Mostly Cloudy
6:56 AM 70.0 °F - 68.0 °F 93% 29.95 in 9.0 mi NE 6.9 mph - N/A   Overcast
7:56 AM 73.0 °F - 70.0 °F 90% 29.96 in 10.0 mi ENE 6.9 mph - N/A   Overcast
8:56 AM 77.0 °F - 71.1 °F 82% 29.96 in 10.0 mi ENE 6.9 mph - N/A   Mostly Cloudy
9:22 AM 78.8 °F - 71.6 °F 78% 30.01 in 10.0 mi East 9.2 mph - N/A   Scattered Clouds
9:56 AM 81.0 °F 84.9 °F 71.1 °F 72% 29.96 in 10.0 mi East 4.6 mph - N/A   Clear
10:56 AM 84.0 °F 89.0 °F 71.1 °F 65% 29.97 in 10.0 mi ENE 8.1 mph - N/A   Scattered Clouds
11:56 AM 84.0 °F 89.0 °F 71.1 °F 65% 29.97 in 10.0 mi ENE 8.1 mph - N/A   Scattered Clouds
12:56 PM 86.0 °F 93.0 °F 73.0 °F 65% 29.97 in 10.0 mi Variable 6.9 mph - N/A   Mostly Cloudy
1:03 PM 84.2 °F 89.6 °F 71.6 °F 66% 30.01 in 10.0 mi East 11.5 mph - N/A   Mostly Cloudy
1:32 PM 78.8 °F - 73.4 °F 83% 30.00 in 10.0 mi ENE 9.2 mph - 0.00 in Rain Light Rain
1:56 PM 81.0 °F 86.2 °F 73.9 °F 79% 29.96 in 10.0 mi NNE 6.9 mph - 0.00 in   Scattered Clouds
2:19 PM 77.0 °F - 71.6 °F 83% 30.00 in 4.0 mi NE 20.7 mph 29.9 mph 0.02 in Rain Heavy Rain
2:37 PM 77.0 °F - 73.4 °F 89% 30.00 in 10.0 mi North 4.6 mph - 0.03 in Rain Light Rain
2:56 PM 77.0 °F - 73.0 °F 88% 29.95 in 10.0 mi Variable 3.5 mph - 0.03 in Rain Rain
3:56 PM 80.1 °F 84.2 °F 73.0 °F 79% 29.95 in 10.0 mi East 16.1 mph 21.9 mph 0.00 in Rain Light Rain
4:56 PM 82.0 °F 88.6 °F 75.0 °F 79% 29.93 in 10.0 mi North 3.5 mph - N/A   Scattered Clouds
5:56 PM 82.0 °F 87.4 °F 73.0 °F 74% 29.94 in 10.0 mi ENE 8.1 mph - N/A   Partly Cloudy
6:16 PM 80.6 °F 85.4 °F 73.4 °F 79% 29.99 in 10.0 mi ESE 8.1 mph - N/A   Mostly Cloudy
6:25 PM 80.6 °F 85.4 °F 73.4 °F 79% 29.99 in 10.0 mi East 6.9 mph - N/A   Mostly Cloudy
6:56 PM 81.0 °F 85.8 °F 73.0 °F 77% 29.95 in 10.0 mi ENE 8.1 mph - N/A   Partly Cloudy
7:56 PM 78.1 °F - 73.0 °F 84% 29.97 in 10.0 mi East 4.6 mph - N/A   Scattered Clouds
8:56 PM 78.1 °F - 73.9 °F 87% 29.99 in 10.0 mi East 3.5 mph - N/A   Clear
9:56 PM 77.0 °F - 73.9 °F 90% 30.00 in 10.0 mi Calm Calm - N/A   Partly Cloudy
10:56 PM 77.0 °F - 73.9 °F 90% 30.01 in 10.0 mi East 4.6 mph - N/A   Scattered Clouds
11:03 PM 77.0 °F - 73.4 °F 89% 30.05 in 10.0 mi East 3.5 mph - N/A   Mostly Cloudy
11:21 PM 75.2 °F - 73.4 °F 94% 30.05 in 10.0 mi Calm Calm - N/A   Scattered Clouds
11:56 PM 75.9 °F - 73.0 °F 91% 30.01 in 10.0 mi East 5.8 mph - N/A   Clear